Time,TemperatureF,DewpointF,PressureIn,WindDirection,WindDirectionDegrees,WindSpeedMPH,WindSpeedGustMPH,Humidity,HourlyPrecipIn,Conditions,Clouds,dailyrainin,SoftwareType,DateUTC
2013-02-20 00:05:00,45.6,30.4,30.22,NNW,333,1.0,2.0,55,0.00,,---,0.00,VWS V14.01,2013-02-20 06:05:00,
2013-02-20 00:11:00,45.5,30.3,30.21,NNW,329,1.0,2.0,55,0.00,,---,0.00,VWS V14.01,2013-02-20 06:11:00,
2013-02-20 00:16:00,45.4,30.2,30.22,North,11,2.0,4.0,55,0.00,,---,0.00,VWS V14.01,2013-02-20 06:16:00,
2013-02-20 00:21:00,45.3,30.1,30.22,North,11,1.0,3.0,55,0.00,,---,0.00,VWS V14.01,2013-02-20 06:21:00,
2013-02-20 00:26:00,45.3,30.1,30.22,NE,52,0.0,1.0,55,0.00,,---,0.00,VWS V14.01,2013-02-20 06:26:00,
2013-02-20 00:32:00,45.3,29.6,30.22,NE,44,1.0,2.0,54,0.00,,---,0.00,VWS V14.01,2013-02-20 06:32:00,
2013-02-20 00:37:00,45.2,29.6,30.22,ENE,63,1.0,2.0,54,0.00,,---,0.00,VWS V14.01,2013-02-20 06:37:00,
2013-02-20 00:42:00,45.0,29.8,30.23,NNW,338,0.0,1.0,55,0.00,,---,0.00,VWS V14.01,2013-02-20 06:42:00,
2013-02-20 00:47:00,44.8,29.6,30.23,North,357,1.0,2.0,55,0.00,,---,0.00,VWS V14.01,2013-02-20 06:47:00,
2013-02-20 00:53:00,44.6,29.9,30.23,ENE,71,1.0,1.0,56,0.00,,---,0.00,VWS V14.01,2013-02-20 06:53:00,
2013-02-20 00:59:00,44.4,29.7,30.24,NW,323,0.0,0.0,56,0.00,,---,0.00,VWS V14.01,2013-02-20 06:59:00,
2013-02-20 01:04:00,44.2,29.5,30.24,NW,321,0.0,1.0,56,0.00,,---,0.00,VWS V14.01,2013-02-20 07:04:00,
2013-02-20 01:09:00,43.9,29.7,30.23,North,1,2.0,2.0,57,0.00,,---,0.00,VWS V14.01,2013-02-20 07:09:00,
2013-02-20 01:15:00,43.7,29.9,30.23,NW,323,0.0,0.0,58,0.00,,---,0.00,VWS V14.01,2013-02-20 07:15:00,
2013-02-20 01:20:00,43.5,29.7,30.23,NW,324,1.0,1.0,58,0.00,,---,0.00,VWS V14.01,2013-02-20 07:20:00,
2013-02-20 01:25:00,43.4,29.6,30.23,North,356,1.0,1.0,58,0.00,,---,0.00,VWS V14.01,2013-02-20 07:25:00,
2013-02-20 01:30:00,43.4,29.6,30.23,NNW,342,0.0,1.0,58,0.00,,---,0.00,VWS V14.01,2013-02-20 07:30:00,
2013-02-20 01:35:00,43.3,30.0,30.24,NNE,27,1.0,1.0,59,0.00,,---,0.00,VWS V14.01,2013-02-20 07:35:00,
2013-02-20 01:40:00,43.2,29.4,30.24,North,360,2.0,2.0,58,0.00,,---,0.00,VWS V14.01,2013-02-20 07:40:00,
2013-02-20 01:45:00,43.1,29.8,30.24,NNW,333,1.0,2.0,59,0.00,,---,0.00,VWS V14.01,2013-02-20 07:45:00,
2013-02-20 01:50:00,42.9,30.0,30.24,NW,314,0.0,1.0,60,0.00,,---,0.00,VWS V14.01,2013-02-20 07:50:00,
2013-02-20 01:56:00,42.8,29.5,30.24,North,356,0.0,1.0,59,0.00,,---,0.00,VWS V14.01,2013-02-20 07:56:00,
2013-02-20 02:05:00,42.5,29.6,30.24,NNE,25,1.0,1.0,60,0.00,,---,0.00,VWS V14.01,2013-02-20 08:05:00,
2013-02-20 02:11:00,42.4,29.5,30.23,NE,41,0.0,2.0,60,0.00,,---,0.00,VWS V14.01,2013-02-20 08:11:00,
2013-02-20 02:16:00,42.4,29.5,30.23,ENE,59,0.0,1.0,60,0.00,,---,0.00,VWS V14.01,2013-02-20 08:16:00,
2013-02-20 02:22:00,42.3,29.0,30.22,ENE,62,1.0,1.0,59,0.00,,---,0.00,VWS V14.01,2013-02-20 08:22:00,
2013-02-20 02:28:00,42.2,29.3,30.22,East,84,0.0,1.0,60,0.00,,---,0.00,VWS V14.01,2013-02-20 08:28:00,
2013-02-20 02:34:00,42.0,29.1,30.22,North,355,1.0,1.0,60,0.00,,---,0.00,VWS V14.01,2013-02-20 08:34:00,
2013-02-20 02:39:00,42.0,29.1,30.23,North,11,1.0,1.0,60,0.00,,---,0.00,VWS V14.01,2013-02-20 08:39:00,
2013-02-20 02:44:00,42.0,28.7,30.22,ENE,77,2.0,3.0,59,0.00,,---,0.00,VWS V14.01,2013-02-20 08:44:00,
2013-02-20 02:49:00,42.0,28.3,30.22,NE,41,0.0,1.0,58,0.00,,---,0.00,VWS V14.01,2013-02-20 08:49:00,
2013-02-20 02:54:00,42.0,28.7,30.22,ENE,75,1.0,1.0,59,0.00,,---,0.00,VWS V14.01,2013-02-20 08:54:00,
2013-02-20 02:59:00,41.9,28.6,30.22,ENE,77,1.0,2.0,59,0.00,,---,0.00,VWS V14.01,2013-02-20 08:59:00,
2013-02-20 03:04:00,41.8,29.0,30.22,North,355,1.0,2.0,60,0.00,,---,0.00,VWS V14.01,2013-02-20 09:04:00,
2013-02-20 03:09:00,41.6,28.8,30.23,NE,46,1.0,1.0,60,0.00,,---,0.00,VWS V14.01,2013-02-20 09:09:00,
2013-02-20 03:14:00,41.4,28.6,30.22,NE,52,0.0,1.0,60,0.00,,---,0.00,VWS V14.01,2013-02-20 09:14:00,
2013-02-20 03:19:00,41.3,28.9,30.22,NNW,331,0.0,1.0,61,0.00,,---,0.00,VWS V14.01,2013-02-20 09:19:00,
2013-02-20 03:24:00,41.0,28.6,30.22,ENE,65,2.0,2.0,61,0.00,,---,0.00,VWS V14.01,2013-02-20 09:24:00,
2013-02-20 03:29:00,40.9,28.9,30.22,North,356,2.0,3.0,62,0.00,,---,0.00,VWS V14.01,2013-02-20 09:29:00,
2013-02-20 03:34:00,40.9,28.9,30.22,ENE,58,1.0,2.0,62,0.00,,---,0.00,VWS V14.01,2013-02-20 09:34:00,
2013-02-20 03:39:00,40.7,28.7,30.22,North,11,1.0,2.0,62,0.00,,---,0.00,VWS V14.01,2013-02-20 09:39:00,
2013-02-20 03:44:00,40.6,28.6,30.22,NE,52,1.0,2.0,62,0.00,,---,0.00,VWS V14.01,2013-02-20 09:44:00,
2013-02-20 03:49:00,40.5,28.9,30.22,NNW,345,1.0,1.0,63,0.00,,---,0.00,VWS V14.01,2013-02-20 09:49:00,
2013-02-20 03:54:00,40.4,28.8,30.22,ENE,60,1.0,1.0,63,0.00,,---,0.00,VWS V14.01,2013-02-20 09:54:00,
2013-02-20 03:59:00,40.3,28.7,30.22,North,355,1.0,2.0,63,0.00,,---,0.00,VWS V14.01,2013-02-20 09:59:00,
2013-02-20 04:05:00,40.1,28.9,30.22,NNE,15,0.0,1.0,64,0.00,,---,0.00,VWS V14.01,2013-02-20 10:05:00,
2013-02-20 04:10:00,39.9,28.7,30.23,North,353,0.0,2.0,64,0.00,,---,0.00,VWS V14.01,2013-02-20 10:10:00,
2013-02-20 04:15:00,39.9,29.1,30.22,North,353,0.0,1.0,65,0.00,,---,0.00,VWS V14.01,2013-02-20 10:15:00,
2013-02-20 04:20:00,39.7,28.5,30.22,North,352,0.0,0.0,64,0.00,,---,0.00,VWS V14.01,2013-02-20 10:20:00,
2013-02-20 04:25:00,39.6,29.2,30.22,North,6,0.0,0.0,66,0.00,,---,0.00,VWS V14.01,2013-02-20 10:25:00,
2013-02-20 04:30:00,39.5,29.1,30.22,ENE,68,1.0,2.0,66,0.00,,---,0.00,VWS V14.01,2013-02-20 10:30:00,
2013-02-20 04:35:00,39.5,29.1,30.21,North,354,2.0,2.0,66,0.00,,---,0.00,VWS V14.01,2013-02-20 10:35:00,
2013-02-20 04:40:00,39.5,29.1,30.21,SE,125,0.0,1.0,66,0.00,,---,0.00,VWS V14.01,2013-02-20 10:40:00,
2013-02-20 04:45:00,39.6,29.2,30.21,ENE,71,0.0,1.0,66,0.00,,---,0.00,VWS V14.01,2013-02-20 10:45:00,
2013-02-20 04:50:00,39.5,29.1,30.21,ENE,60,1.0,3.0,66,0.00,,---,0.00,VWS V14.01,2013-02-20 10:50:00,
2013-02-20 04:55:00,39.5,29.1,30.21,ENE,77,1.0,2.0,66,0.00,,---,0.00,VWS V14.01,2013-02-20 10:55:00,
2013-02-20 05:00:00,39.6,29.2,30.20,East,80,2.0,2.0,66,0.00,,---,0.00,VWS V14.01,2013-02-20 11:00:00,
2013-02-20 05:05:00,39.6,29.6,30.20,NE,50,2.0,4.0,67,0.00,,---,0.00,VWS V14.01,2013-02-20 11:05:00,
2013-02-20 05:10:00,39.7,29.3,30.20,ENE,72,1.0,2.0,66,0.00,,---,0.00,VWS V14.01,2013-02-20 11:10:00,
2013-02-20 05:15:00,39.7,29.3,30.19,ENE,58,2.0,2.0,66,0.00,,---,0.00,VWS V14.01,2013-02-20 11:15:00,
2013-02-20 05:20:00,39.7,29.3,30.20,North,353,1.0,3.0,66,0.00,,---,0.00,VWS V14.01,2013-02-20 11:20:00,
2013-02-20 05:25:00,39.7,29.7,30.20,ENE,74,4.0,4.0,67,0.00,,---,0.00,VWS V14.01,2013-02-20 11:25:00,
2013-02-20 05:30:00,39.8,29.8,30.20,NE,44,1.0,3.0,67,0.00,,---,0.00,VWS V14.01,2013-02-20 11:30:00,
2013-02-20 05:35:00,39.9,29.9,30.20,NE,49,2.0,4.0,67,0.00,,---,0.00,VWS V14.01,2013-02-20 11:35:00,
2013-02-20 05:40:00,39.9,29.9,30.19,ENE,58,4.0,4.0,67,0.00,,---,0.00,VWS V14.01,2013-02-20 11:40:00,
2013-02-20 05:45:00,40.1,30.0,30.19,WSW,255,1.0,3.0,67,0.00,,---,0.00,VWS V14.01,2013-02-20 11:45:00,
2013-02-20 05:50:00,40.4,30.0,30.19,NE,46,3.0,4.0,66,0.00,,---,0.00,VWS V14.01,2013-02-20 11:50:00,
2013-02-20 05:55:00,40.7,30.2,30.18,ENE,60,1.0,3.0,66,0.00,,---,0.00,VWS V14.01,2013-02-20 11:55:00,
2013-02-20 06:00:00,40.9,30.1,30.19,ENE,63,4.0,5.0,65,0.00,,---,0.00,VWS V14.01,2013-02-20 12:00:00,
2013-02-20 06:05:00,41.1,29.9,30.17,NNW,347,3.0,7.0,64,0.00,,---,0.00,VWS V14.01,2013-02-20 12:05:00,
2013-02-20 06:10:00,41.3,29.7,30.18,East,99,5.0,6.0,63,0.00,,---,0.00,VWS V14.01,2013-02-20 12:10:00,
2013-02-20 06:15:00,41.6,29.6,30.19,WNW,290,3.0,7.0,62,0.00,,---,0.00,VWS V14.01,2013-02-20 12:15:00,
2013-02-20 06:20:00,41.8,29.0,30.19,NW,321,1.0,8.0,60,0.00,,---,0.00,VWS V14.01,2013-02-20 12:20:00,
2013-02-20 06:25:00,42.0,28.7,30.20,East,91,2.0,4.0,59,0.00,,---,0.00,VWS V14.01,2013-02-20 12:25:00,
2013-02-20 06:30:00,42.0,29.1,30.21,NE,44,2.0,2.0,60,0.00,,---,0.00,VWS V14.01,2013-02-20 12:30:00,
2013-02-20 06:35:00,42.1,28.8,30.21,ENE,68,5.0,6.0,59,0.00,,---,0.00,VWS V14.01,2013-02-20 12:35:00,
2013-02-20 06:40:00,42.2,28.5,30.21,NW,304,3.0,3.0,58,0.00,,---,0.00,VWS V14.01,2013-02-20 12:40:00,
2013-02-20 06:45:00,42.4,27.8,30.22,NE,43,1.0,8.0,56,0.00,,---,0.00,VWS V14.01,2013-02-20 12:45:00,
2013-02-20 06:50:00,42.5,27.9,30.22,NE,46,3.0,5.0,56,0.00,,---,0.00,VWS V14.01,2013-02-20 12:50:00,
2013-02-20 06:55:00,42.7,27.7,30.21,ENE,68,4.0,5.0,55,0.00,,---,0.00,VWS V14.01,2013-02-20 12:55:00,
2013-02-20 07:00:00,42.6,27.6,30.21,NE,35,4.0,4.0,55,0.00,,---,0.00,VWS V14.01,2013-02-20 13:00:00,
2013-02-20 07:05:00,42.7,28.1,30.21,ENE,68,2.0,7.0,56,0.00,,---,0.00,VWS V14.01,2013-02-20 13:05:00,
2013-02-20 07:10:00,42.7,27.2,30.22,ENE,59,2.0,6.0,54,0.00,,---,0.00,VWS V14.01,2013-02-20 13:10:00,
2013-02-20 07:15:00,42.9,27.4,30.23,NE,42,3.0,4.0,54,0.00,,---,0.00,VWS V14.01,2013-02-20 13:15:00,
2013-02-20 07:20:00,43.1,27.6,30.24,ENE,68,4.0,4.0,54,0.00,,---,0.00,VWS V14.01,2013-02-20 13:20:00,
2013-02-20 07:25:00,43.7,27.7,30.24,NE,49,2.0,5.0,53,0.00,,---,0.00,VWS V14.01,2013-02-20 13:25:00,
2013-02-20 07:30:00,44.2,27.2,30.24,East,83,5.0,8.0,51,0.00,,---,0.00,VWS V14.01,2013-02-20 13:30:00,
2013-02-20 07:35:00,44.6,28.1,30.24,ESE,115,2.0,3.0,52,0.00,,---,0.00,VWS V14.01,2013-02-20 13:35:00,
2013-02-20 07:40:00,44.7,27.2,30.24,NE,47,4.0,8.0,50,0.00,,---,0.00,VWS V14.01,2013-02-20 13:40:00,
2013-02-20 07:46:00,44.6,27.1,30.25,ENE,75,3.0,7.0,50,0.00,,---,0.00,VWS V14.01,2013-02-20 13:46:00,
2013-02-20 07:51:00,44.6,27.1,30.25,SE,131,2.0,4.0,50,0.00,,---,0.00,VWS V14.01,2013-02-20 13:51:00,
2013-02-20 07:56:00,44.5,27.5,30.25,ENE,73,0.0,1.0,51,0.00,,---,0.00,VWS V14.01,2013-02-20 13:56:00,
2013-02-20 08:01:00,44.5,27.5,30.25,SE,125,3.0,4.0,51,0.00,,---,0.00,VWS V14.01,2013-02-20 14:01:00,
2013-02-20 08:06:00,44.4,27.4,30.25,East,93,3.0,5.0,51,0.00,,---,0.00,VWS V14.01,2013-02-20 14:06:00,
2013-02-20 08:11:00,44.4,27.4,30.25,NE,47,2.0,4.0,51,0.00,,---,0.00,VWS V14.01,2013-02-20 14:11:00,
2013-02-20 08:16:00,44.5,27.0,30.26,East,82,3.0,4.0,50,0.00,,---,0.00,VWS V14.01,2013-02-20 14:16:00,
2013-02-20 08:21:00,44.5,27.0,30.26,ENE,71,1.0,4.0,50,0.00,,---,0.00,VWS V14.01,2013-02-20 14:21:00,
2013-02-20 08:26:00,44.6,26.1,30.26,ENE,65,4.0,6.0,48,0.00,,---,0.00,VWS V14.01,2013-02-20 14:26:00,
2013-02-20 08:31:00,44.6,26.6,30.25,ENE,62,1.0,3.0,49,0.00,,---,0.00,VWS V14.01,2013-02-20 14:31:00,
2013-02-20 08:36:00,44.8,26.8,30.26,NNE,32,3.0,4.0,49,0.00,,---,0.00,VWS V14.01,2013-02-20 14:36:00,
2013-02-20 08:41:00,44.8,26.8,30.26,East,82,3.0,6.0,49,0.00,,---,0.00,VWS V14.01,2013-02-20 14:41:00,
2013-02-20 08:46:00,44.9,25.9,30.26,NE,39,5.0,6.0,47,0.00,,---,0.00,VWS V14.01,2013-02-20 14:46:00,
2013-02-20 08:51:00,44.9,25.9,30.27,North,4,3.0,3.0,47,0.00,,---,0.00,VWS V14.01,2013-02-20 14:51:00,
2013-02-20 08:56:00,45.1,26.1,30.27,East,91,3.0,4.0,47,0.00,,---,0.00,VWS V14.01,2013-02-20 14:56:00,
2013-02-20 09:01:00,45.2,25.1,30.27,NE,42,2.0,6.0,45,0.00,,---,0.00,VWS V14.01,2013-02-20 15:01:00,
2013-02-20 09:06:00,45.3,24.7,30.27,North,1,1.0,2.0,44,0.00,,---,0.00,VWS V14.01,2013-02-20 15:06:00,
2013-02-20 09:11:00,45.3,25.2,30.28,SE,124,1.0,3.0,45,0.00,,---,0.00,VWS V14.01,2013-02-20 15:11:00,
2013-02-20 09:16:00,45.6,25.0,30.28,NE,56,0.0,4.0,44,0.00,,---,0.00,VWS V14.01,2013-02-20 15:16:00,
2013-02-20 09:21:00,45.7,25.0,30.29,ENE,68,3.0,4.0,44,0.00,,---,0.00,VWS V14.01,2013-02-20 15:21:00,
2013-02-20 09:26:00,46.0,25.9,30.28,NE,49,1.0,3.0,45,0.00,,---,0.00,VWS V14.01,2013-02-20 15:26:00,
2013-02-20 09:31:00,46.3,26.1,30.28,ENE,63,5.0,6.0,45,0.00,,---,0.00,VWS V14.01,2013-02-20 15:31:00,
2013-02-20 09:36:00,46.3,25.6,30.28,ENE,63,1.0,3.0,44,0.00,,---,0.00,VWS V14.01,2013-02-20 15:36:00,
2013-02-20 09:41:00,46.5,25.8,30.28,East,93,2.0,4.0,44,0.00,,---,0.00,VWS V14.01,2013-02-20 15:41:00,
2013-02-20 09:46:00,46.9,26.7,30.27,ENE,73,4.0,4.0,45,0.00,,---,0.00,VWS V14.01,2013-02-20 15:46:00,
2013-02-20 09:51:00,47.4,26.0,30.26,North,352,1.0,4.0,43,0.00,,---,0.00,VWS V14.01,2013-02-20 15:51:00,
2013-02-20 09:56:00,47.7,25.8,30.26,ENE,74,1.0,3.0,42,0.00,,---,0.00,VWS V14.01,2013-02-20 15:56:00,
2013-02-20 10:01:00,48.1,27.2,30.27,ENE,61,1.0,3.0,44,0.00,,---,0.00,VWS V14.01,2013-02-20 16:01:00,
2013-02-20 10:06:00,48.5,25.9,30.26,North,355,1.0,3.0,41,0.00,,---,0.00,VWS V14.01,2013-02-20 16:06:00,
2013-02-20 10:11:00,48.3,26.3,30.26,ENE,72,3.0,4.0,42,0.00,,---,0.00,VWS V14.01,2013-02-20 16:11:00,
2013-02-20 10:16:00,47.9,25.9,30.26,NE,53,2.0,4.0,42,0.00,,---,0.00,VWS V14.01,2013-02-20 16:16:00,
2013-02-20 10:21:00,48.1,25.5,30.26,ESE,117,1.0,5.0,41,0.00,,---,0.00,VWS V14.01,2013-02-20 16:21:00,
2013-02-20 10:26:00,48.4,27.0,30.26,NNW,345,3.0,3.0,43,0.00,,---,0.00,VWS V14.01,2013-02-20 16:26:00,
2013-02-20 10:31:00,49.1,28.1,30.26,NW,326,2.0,2.0,44,0.00,,---,0.00,VWS V14.01,2013-02-20 16:31:00,
2013-02-20 10:36:00,49.5,26.8,30.25,North,357,2.0,3.0,41,0.00,,---,0.00,VWS V14.01,2013-02-20 16:36:00,
2013-02-20 10:41:00,49.8,26.5,30.25,SE,134,0.0,3.0,40,0.00,,---,0.00,VWS V14.01,2013-02-20 16:41:00,
2013-02-20 10:46:00,50.4,27.0,30.25,North,9,1.0,3.0,40,0.00,,---,0.00,VWS V14.01,2013-02-20 16:46:00,
2013-02-20 10:51:00,50.7,26.7,30.25,NNE,17,6.0,6.0,39,0.00,,---,0.00,VWS V14.01,2013-02-20 16:51:00,
2013-02-20 10:56:00,50.5,25.2,30.25,ENE,65,3.0,6.0,37,0.00,,---,0.00,VWS V14.01,2013-02-20 16:56:00,
2013-02-20 11:01:00,50.3,25.0,30.24,ENE,61,2.0,5.0,37,0.00,,---,0.00,VWS V14.01,2013-02-20 17:01:00,
2013-02-20 11:06:00,50.3,26.3,30.25,ENE,76,1.0,4.0,39,0.00,,---,0.00,VWS V14.01,2013-02-20 17:06:00,
2013-02-20 11:11:00,50.9,28.1,30.24,NE,35,0.0,1.0,41,0.00,,---,0.00,VWS V14.01,2013-02-20 17:11:00,
2013-02-20 11:16:00,51.6,26.8,30.24,ENE,73,5.0,8.0,38,0.00,,---,0.00,VWS V14.01,2013-02-20 17:16:00,
2013-02-20 11:21:00,51.5,27.4,30.25,NNW,341,3.0,3.0,39,0.00,,---,0.00,VWS V14.01,2013-02-20 17:21:00,
2013-02-20 11:26:00,51.9,25.1,30.25,ENE,65,2.0,6.0,35,0.00,,---,0.00,VWS V14.01,2013-02-20 17:26:00,
2013-02-20 11:31:00,52.4,26.9,30.24,ENE,73,2.0,5.0,37,0.00,,---,0.00,VWS V14.01,2013-02-20 17:31:00,
2013-02-20 11:36:00,52.7,25.8,30.25,NW,312,1.0,2.0,35,0.00,,---,0.00,VWS V14.01,2013-02-20 17:36:00,
2013-02-20 11:41:00,52.8,25.2,30.24,NE,47,5.0,8.0,34,0.00,,---,0.00,VWS V14.01,2013-02-20 17:41:00,
2013-02-20 11:46:00,52.6,25.0,30.24,East,94,1.0,3.0,34,0.00,,---,0.00,VWS V14.01,2013-02-20 17:46:00,
2013-02-20 11:51:00,53.4,27.1,30.23,ENE,73,2.0,3.0,36,0.00,,---,0.00,VWS V14.01,2013-02-20 17:51:00,
2013-02-20 11:56:00,53.8,26.1,30.23,NW,314,0.0,3.0,34,0.00,,---,0.00,VWS V14.01,2013-02-20 17:56:00,
2013-02-20 12:01:00,54.2,24.2,30.23,East,98,2.0,3.0,31,0.00,,---,0.00,VWS V14.01,2013-02-20 18:01:00,
2013-02-20 12:06:00,54.4,24.4,30.22,ESE,113,0.0,2.0,31,0.00,,---,0.00,VWS V14.01,2013-02-20 18:06:00,
2013-02-20 12:11:00,55.1,25.8,30.21,North,1,3.0,3.0,32,0.00,,---,0.00,VWS V14.01,2013-02-20 18:11:00,
2013-02-20 12:16:00,55.4,26.8,30.20,ENE,74,2.0,2.0,33,0.00,,---,0.00,VWS V14.01,2013-02-20 18:16:00,
2013-02-20 12:21:00,55.7,26.3,30.20,SE,131,1.0,2.0,32,0.00,,---,0.00,VWS V14.01,2013-02-20 18:21:00,
2013-02-20 12:26:00,55.4,25.3,30.20,ESE,110,1.0,2.0,31,0.00,,---,0.00,VWS V14.01,2013-02-20 18:26:00,
2013-02-20 12:31:00,55.7,25.5,30.20,ENE,65,1.0,2.0,31,0.00,,---,0.00,VWS V14.01,2013-02-20 18:31:00,
2013-02-20 12:36:00,55.3,25.2,30.20,East,95,3.0,3.0,31,0.00,,---,0.00,VWS V14.01,2013-02-20 18:36:00,
2013-02-20 12:41:00,55.3,25.2,30.20,ESE,117,3.0,5.0,31,0.00,,---,0.00,VWS V14.01,2013-02-20 18:41:00,
2013-02-20 12:46:00,55.6,25.5,30.19,East,99,2.0,3.0,31,0.00,,---,0.00,VWS V14.01,2013-02-20 18:46:00,
2013-02-20 12:51:00,55.9,24.9,30.18,ENE,68,2.0,6.0,30,0.00,,---,0.00,VWS V14.01,2013-02-20 18:51:00,
2013-02-20 12:56:00,56.0,25.8,30.18,SE,132,2.0,4.0,31,0.00,,---,0.00,VWS V14.01,2013-02-20 18:56:00,
2013-02-20 13:01:00,56.3,26.1,30.18,ENE,78,3.0,5.0,31,0.00,,---,0.00,VWS V14.01,2013-02-20 19:01:00,
2013-02-20 13:06:00,56.4,28.4,30.17,ENE,71,1.0,2.0,34,0.00,,---,0.00,VWS V14.01,2013-02-20 19:06:00,
2013-02-20 13:11:00,57.2,28.4,30.17,ENE,68,5.0,5.0,33,0.00,,---,0.00,VWS V14.01,2013-02-20 19:11:00,
2013-02-20 13:16:00,57.1,26.0,30.16,ENE,71,1.0,2.0,30,0.00,,---,0.00,VWS V14.01,2013-02-20 19:16:00,
2013-02-20 13:21:00,56.5,25.5,30.16,NNW,338,1.0,3.0,30,0.00,,---,0.00,VWS V14.01,2013-02-20 19:21:00,
2013-02-20 13:26:00,56.5,27.8,30.17,ENE,61,4.0,4.0,33,0.00,,---,0.00,VWS V14.01,2013-02-20 19:26:00,
2013-02-20 13:31:00,56.3,27.6,30.16,ESE,115,2.0,3.0,33,0.00,,---,0.00,VWS V14.01,2013-02-20 19:31:00,
2013-02-20 13:36:00,56.5,27.0,30.16,East,80,6.0,6.0,32,0.00,,---,0.00,VWS V14.01,2013-02-20 19:36:00,
2013-02-20 13:41:00,56.2,27.5,30.16,NE,53,3.0,4.0,33,0.00,,---,0.00,VWS V14.01,2013-02-20 19:41:00,
2013-02-20 13:46:00,56.3,27.6,30.16,NE,41,3.0,4.0,33,0.00,,---,0.00,VWS V14.01,2013-02-20 19:46:00,
2013-02-20 13:51:00,56.0,28.8,30.14,ENE,65,2.0,7.0,35,0.00,,---,0.00,VWS V14.01,2013-02-20 19:51:00,
2013-02-20 13:56:00,56.2,28.9,30.14,ENE,68,4.0,4.0,35,0.00,,---,0.00,VWS V14.01,2013-02-20 19:56:00,
2013-02-20 14:01:00,56.6,28.6,30.14,ENE,64,4.0,4.0,34,0.00,,---,0.00,VWS V14.01,2013-02-20 20:01:00,
2013-02-20 14:06:00,57.1,29.7,30.15,East,86,2.0,3.0,35,0.00,,---,0.00,VWS V14.01,2013-02-20 20:06:00,
2013-02-20 14:11:00,57.3,27.0,30.14,NE,53,4.0,6.0,31,0.00,,---,0.00,VWS V14.01,2013-02-20 20:11:00,
2013-02-20 14:16:00,57.2,28.4,30.14,NE,56,2.0,5.0,33,0.00,,---,0.00,VWS V14.01,2013-02-20 20:16:00,
2013-02-20 14:21:00,57.1,27.5,30.14,NNW,343,1.0,4.0,32,0.00,,---,0.00,VWS V14.01,2013-02-20 20:21:00,
2013-02-20 14:26:00,57.1,28.3,30.14,NNW,336,1.0,2.0,33,0.00,,---,0.00,VWS V14.01,2013-02-20 20:26:00,
2013-02-20 14:31:00,57.6,28.0,30.14,North,356,3.0,6.0,32,0.00,,---,0.00,VWS V14.01,2013-02-20 20:31:00,
2013-02-20 14:36:00,57.6,25.6,30.14,NNE,30,2.0,5.0,29,0.00,,---,0.00,VWS V14.01,2013-02-20 20:36:00,
2013-02-20 14:41:00,57.4,25.4,30.14,NNE,30,2.0,5.0,29,0.00,,---,0.00,VWS V14.01,2013-02-20 20:41:00,
2013-02-20 14:46:00,58.2,26.9,30.14,North,1,1.0,2.0,30,0.00,,---,0.00,VWS V14.01,2013-02-20 20:46:00,
2013-02-20 14:51:00,58.5,27.2,30.14,North,350,1.0,3.0,30,0.00,,---,0.00,VWS V14.01,2013-02-20 20:51:00,
2013-02-20 14:56:00,58.9,27.5,30.13,NNW,338,2.0,2.0,30,0.00,,---,0.00,VWS V14.01,2013-02-20 20:56:00,
2013-02-20 15:01:00,59.0,26.0,30.13,SE,125,2.0,3.0,28,0.00,,---,0.00,VWS V14.01,2013-02-20 21:01:00,
2013-02-20 15:06:00,58.7,27.4,30.12,ENE,60,0.0,1.0,30,0.00,,---,0.00,VWS V14.01,2013-02-20 21:06:00,
2013-02-20 15:11:00,58.9,27.5,30.13,ENE,63,5.0,5.0,30,0.00,,---,0.00,VWS V14.01,2013-02-20 21:11:00,
2013-02-20 15:16:00,58.8,27.5,30.12,ENE,77,2.0,4.0,30,0.00,,---,0.00,VWS V14.01,2013-02-20 21:16:00,
2013-02-20 15:21:00,58.8,27.5,30.12,East,89,1.0,2.0,30,0.00,,---,0.00,VWS V14.01,2013-02-20 21:21:00,
2013-02-20 15:26:00,58.9,28.3,30.12,NE,56,2.0,5.0,31,0.00,,---,0.00,VWS V14.01,2013-02-20 21:26:00,
2013-02-20 15:31:00,58.7,28.9,30.13,NNE,27,1.0,3.0,32,0.00,,---,0.00,VWS V14.01,2013-02-20 21:31:00,
2013-02-20 15:36:00,58.9,28.3,30.12,ENE,65,1.0,1.0,31,0.00,,---,0.00,VWS V14.01,2013-02-20 21:36:00,
2013-02-20 15:41:00,58.7,27.4,30.12,East,84,2.0,6.0,30,0.00,,---,0.00,VWS V14.01,2013-02-20 21:41:00,
2013-02-20 15:46:00,58.6,28.9,30.12,NNW,345,4.0,4.0,32,0.00,,---,0.00,VWS V14.01,2013-02-20 21:46:00,
2013-02-20 15:51:00,58.7,28.9,30.12,WSW,238,2.0,7.0,32,0.00,,---,0.00,VWS V14.01,2013-02-20 21:51:00,
2013-02-20 15:56:00,58.7,29.7,30.12,NNE,20,1.0,1.0,33,0.00,,---,0.00,VWS V14.01,2013-02-20 21:56:00,
2013-02-20 16:01:00,59.0,29.2,30.12,East,96,2.0,4.0,32,0.00,,---,0.00,VWS V14.01,2013-02-20 22:01:00,
2013-02-20 16:06:00,58.7,28.9,30.12,ENE,71,3.0,5.0,32,0.00,,---,0.00,VWS V14.01,2013-02-20 22:06:00,
2013-02-20 16:11:00,58.3,29.3,30.13,NW,315,1.0,5.0,33,0.00,,---,0.00,VWS V14.01,2013-02-20 22:11:00,
2013-02-20 16:16:00,58.4,29.4,30.13,ENE,66,1.0,2.0,33,0.00,,---,0.00,VWS V14.01,2013-02-20 22:16:00,
2013-02-20 16:21:00,58.6,29.6,30.13,NE,49,2.0,4.0,33,0.00,,---,0.00,VWS V14.01,2013-02-20 22:21:00,
2013-02-20 16:26:00,58.5,29.5,30.13,ENE,68,1.0,2.0,33,0.00,,---,0.00,VWS V14.01,2013-02-20 22:26:00,
2013-02-20 16:31:00,58.5,29.5,30.13,ENE,68,2.0,2.0,33,0.00,,---,0.00,VWS V14.01,2013-02-20 22:31:00,
2013-02-20 16:36:00,58.5,29.5,30.13,ENE,68,4.0,6.0,33,0.00,,---,0.00,VWS V14.01,2013-02-20 22:36:00,
2013-02-20 16:41:00,58.2,30.0,30.13,NNW,330,1.0,1.0,34,0.00,,---,0.00,VWS V14.01,2013-02-20 22:41:00,
2013-02-20 16:46:00,58.1,29.9,30.12,NW,314,1.0,4.0,34,0.00,,---,0.00,VWS V14.01,2013-02-20 22:46:00,
2013-02-20 16:51:00,57.7,29.5,30.13,East,85,1.0,1.0,34,0.00,,---,0.00,VWS V14.01,2013-02-20 22:51:00,
2013-02-20 16:56:00,57.2,29.8,30.13,NNE,17,1.0,1.0,35,0.00,,---,0.00,VWS V14.01,2013-02-20 22:56:00,
2013-02-20 17:01:00,56.9,28.8,30.14,ENE,73,1.0,1.0,34,0.00,,---,0.00,VWS V14.01,2013-02-20 23:01:00,
2013-02-20 17:06:00,56.7,30.1,30.14,ENE,71,1.0,1.0,36,0.00,,---,0.00,VWS V14.01,2013-02-20 23:06:00,
2013-02-20 17:11:00,56.5,29.9,30.14,ENE,70,0.0,0.0,36,0.00,,---,0.00,VWS V14.01,2013-02-20 23:11:00,
2013-02-20 17:16:00,56.2,30.3,30.14,NNE,12,1.0,1.0,37,0.00,,---,0.00,VWS V14.01,2013-02-20 23:16:00,
2013-02-20 17:21:00,55.9,30.7,30.13,North,9,0.0,0.0,38,0.00,,---,0.00,VWS V14.01,2013-02-20 23:21:00,
2013-02-20 17:27:00,55.5,30.3,30.14,North,9,0.0,0.0,38,0.00,,---,0.00,VWS V14.01,2013-02-20 23:27:00,
2013-02-20 17:32:00,55.1,30.6,30.14,North,9,0.0,0.0,39,0.00,,---,0.00,VWS V14.01,2013-02-20 23:32:00,
2013-02-20 17:37:00,54.6,30.8,30.14,North,9,0.0,0.0,40,0.00,,---,0.00,VWS V14.01,2013-02-20 23:37:00,
2013-02-20 17:42:00,54.2,30.4,30.13,NE,47,0.0,0.0,40,0.00,,---,0.00,VWS V14.01,2013-02-20 23:42:00,
2013-02-20 17:48:00,53.7,30.6,30.13,ENE,70,0.0,0.0,41,0.00,,---,0.00,VWS V14.01,2013-02-20 23:48:00,
2013-02-20 17:53:00,53.3,30.8,30.14,ENE,71,0.0,0.0,42,0.00,,---,0.00,VWS V14.01,2013-02-20 23:53:00,
2013-02-20 17:58:00,52.8,30.9,30.14,ENE,71,0.0,0.0,43,0.00,,---,0.00,VWS V14.01,2013-02-20 23:58:00,
2013-02-20 18:03:00,52.4,31.1,30.14,ENE,71,0.0,0.0,44,0.00,,---,0.00,VWS V14.01,2013-02-21 00:03:00,
2013-02-20 18:08:00,51.8,31.1,30.14,ENE,71,0.0,0.0,45,0.00,,---,0.00,VWS V14.01,2013-02-21 00:08:00,
2013-02-20 18:14:00,51.4,31.3,30.13,ENE,70,0.0,0.0,46,0.00,,---,0.00,VWS V14.01,2013-02-21 00:14:00,
2013-02-20 18:19:00,51.1,31.1,30.13,ENE,71,0.0,0.0,46,0.00,,---,0.00,VWS V14.01,2013-02-21 00:19:00,
2013-02-20 18:24:00,50.8,31.8,30.14,ENE,71,0.0,0.0,48,0.00,,---,0.00,VWS V14.01,2013-02-21 00:24:00,
2013-02-20 18:29:00,50.3,32.9,30.14,ENE,70,0.0,0.0,51,0.00,,---,0.00,VWS V14.01,2013-02-21 00:29:00,
2013-02-20 18:34:00,49.7,32.3,30.14,ENE,71,0.0,0.0,51,0.00,,---,0.00,VWS V14.01,2013-02-21 00:34:00,
2013-02-20 18:39:00,49.0,33.1,30.14,ENE,71,0.0,0.0,54,0.00,,---,0.00,VWS V14.01,2013-02-21 00:39:00,
2013-02-20 18:44:00,48.5,32.6,30.14,ENE,71,0.0,0.0,54,0.00,,---,0.00,VWS V14.01,2013-02-21 00:44:00,
2013-02-20 18:50:00,47.8,32.4,30.14,ENE,70,0.0,0.0,55,0.00,,---,0.00,VWS V14.01,2013-02-21 00:50:00,
2013-02-20 18:56:00,47.3,32.8,30.14,ENE,71,0.0,0.0,57,0.00,,---,0.00,VWS V14.01,2013-02-21 00:56:00,
2013-02-20 19:01:00,47.0,32.1,30.14,ENE,71,0.0,0.0,56,0.00,,---,0.00,VWS V14.01,2013-02-21 01:01:00,
2013-02-20 19:06:00,46.9,32.5,30.14,ENE,71,0.0,0.0,57,0.00,,---,0.00,VWS V14.01,2013-02-21 01:06:00,
2013-02-20 19:11:00,46.7,32.3,30.14,ENE,71,0.0,0.0,57,0.00,,---,0.00,VWS V14.01,2013-02-21 01:11:00,
2013-02-20 19:17:00,46.3,32.8,30.14,ENE,71,0.0,0.0,59,0.00,,---,0.00,VWS V14.01,2013-02-21 01:17:00,
2013-02-20 19:22:00,46.3,33.2,30.14,ENE,71,0.0,0.0,60,0.00,,---,0.00,VWS V14.01,2013-02-21 01:22:00,
2013-02-20 19:28:00,46.1,33.8,30.14,ENE,70,0.0,0.0,62,0.00,,---,0.00,VWS V14.01,2013-02-21 01:28:00,
2013-02-20 19:34:00,45.8,33.5,30.14,ENE,71,0.0,0.0,62,0.00,,---,0.00,VWS V14.01,2013-02-21 01:34:00,
2013-02-20 19:39:00,45.7,33.8,30.14,ENE,71,0.0,0.0,63,0.00,,---,0.00,VWS V14.01,2013-02-21 01:39:00,
2013-02-20 19:44:00,45.7,33.8,30.14,ENE,70,0.0,0.0,63,0.00,,---,0.00,VWS V14.01,2013-02-21 01:44:00,
2013-02-20 19:50:00,45.6,34.1,30.13,ENE,70,0.0,0.0,64,0.00,,---,0.00,VWS V14.01,2013-02-21 01:50:00,
2013-02-20 19:55:00,45.5,34.0,30.14,ENE,70,0.0,0.0,64,0.00,,---,0.00,VWS V14.01,2013-02-21 01:55:00,
2013-02-20 20:00:00,45.2,34.2,30.14,ENE,71,0.0,0.0,65,0.00,,---,0.00,VWS V14.01,2013-02-21 02:00:00,
2013-02-20 20:06:00,44.8,33.4,30.13,ENE,71,0.0,0.0,64,0.00,,---,0.00,VWS V14.01,2013-02-21 02:06:00,
2013-02-20 20:11:00,45.0,33.2,30.13,ENE,70,0.0,0.0,63,0.00,,---,0.00,VWS V14.01,2013-02-21 02:11:00,
2013-02-20 20:16:00,45.1,33.3,30.14,ENE,71,0.0,0.0,63,0.00,,---,0.00,VWS V14.01,2013-02-21 02:16:00,
2013-02-20 20:22:00,45.3,33.1,30.14,ENE,71,0.0,0.0,62,0.00,,---,0.00,VWS V14.01,2013-02-21 02:22:00,
2013-02-20 20:27:00,45.2,33.8,30.14,ENE,70,0.0,0.0,64,0.00,,---,0.00,VWS V14.01,2013-02-21 02:27:00,
2013-02-20 20:32:00,45.0,34.0,30.14,ENE,70,0.0,0.0,65,0.00,,---,0.00,VWS V14.01,2013-02-21 02:32:00,
2013-02-20 20:37:00,44.7,33.7,30.14,ENE,71,0.0,0.0,65,0.00,,---,0.00,VWS V14.01,2013-02-21 02:37:00,
2013-02-20 20:42:00,44.9,32.7,30.14,ENE,71,0.0,0.0,62,0.00,,---,0.00,VWS V14.01,2013-02-21 02:42:00,
2013-02-20 20:47:00,45.3,32.7,30.14,ENE,71,0.0,0.0,61,0.00,,---,0.00,VWS V14.01,2013-02-21 02:47:00,
2013-02-20 20:52:00,45.6,32.9,30.14,ENE,71,0.0,0.0,61,0.00,,---,0.00,VWS V14.01,2013-02-21 02:52:00,
2013-02-20 20:58:00,45.9,32.8,30.14,ENE,68,0.0,0.0,60,0.00,,---,0.00,VWS V14.01,2013-02-21 02:58:00,
2013-02-20 21:03:00,46.0,33.3,30.14,NE,55,0.0,1.0,61,0.00,,---,0.00,VWS V14.01,2013-02-21 03:03:00,
2013-02-20 21:08:00,46.1,33.4,30.14,ENE,63,0.0,0.0,61,0.00,,---,0.00,VWS V14.01,2013-02-21 03:08:00,
2013-02-20 21:14:00,46.0,33.3,30.14,ENE,61,0.0,1.0,61,0.00,,---,0.00,VWS V14.01,2013-02-21 03:14:00,
2013-02-20 21:20:00,46.3,33.6,30.13,East,79,0.0,5.0,61,0.00,,---,0.00,VWS V14.01,2013-02-21 03:20:00,
2013-02-20 21:26:00,47.0,32.6,30.14,ENE,76,0.0,0.0,57,0.00,,---,0.00,VWS V14.01,2013-02-21 03:26:00,
2013-02-20 21:31:00,47.2,32.3,30.14,ENE,76,1.0,1.0,56,0.00,,---,0.00,VWS V14.01,2013-02-21 03:31:00,
2013-02-20 21:36:00,47.2,32.3,30.14,ENE,76,1.0,1.0,56,0.00,,---,0.00,VWS V14.01,2013-02-21 03:36:00,
2013-02-20 21:42:00,47.1,32.2,30.14,ENE,78,0.0,1.0,56,0.00,,---,0.00,VWS V14.01,2013-02-21 03:42:00,
2013-02-20 21:47:00,46.8,32.4,30.13,ENE,78,0.0,1.0,57,0.00,,---,0.00,VWS V14.01,2013-02-21 03:47:00,
2013-02-20 21:52:00,46.4,32.4,30.13,ENE,77,0.0,0.0,58,0.00,,---,0.00,VWS V14.01,2013-02-21 03:52:00,
2013-02-20 21:57:00,46.1,32.6,30.13,East,93,0.0,0.0,59,0.00,,---,0.00,VWS V14.01,2013-02-21 03:57:00,
2013-02-20 22:02:00,45.9,33.2,30.12,East,93,0.0,0.0,61,0.00,,---,0.00,VWS V14.01,2013-02-21 04:02:00,
2013-02-20 22:07:00,45.5,33.2,30.12,East,93,0.0,0.0,62,0.00,,---,0.00,VWS V14.01,2013-02-21 04:07:00,
2013-02-20 22:13:00,45.0,33.2,30.13,East,93,0.0,1.0,63,0.00,,---,0.00,VWS V14.01,2013-02-21 04:13:00,
2013-02-20 22:18:00,44.6,33.2,30.13,East,93,0.0,0.0,64,0.00,,---,0.00,VWS V14.01,2013-02-21 04:18:00,
2013-02-20 22:23:00,44.4,33.8,30.12,East,93,0.0,0.0,66,0.00,,---,0.00,VWS V14.01,2013-02-21 04:23:00,
2013-02-20 22:28:00,44.1,33.1,30.12,East,93,0.0,0.0,65,0.00,,---,0.00,VWS V14.01,2013-02-21 04:28:00,
2013-02-20 22:34:00,43.8,33.2,30.12,East,93,0.0,0.0,66,0.00,,---,0.00,VWS V14.01,2013-02-21 04:34:00,
2013-02-20 22:39:00,43.6,33.8,30.12,East,93,0.0,0.0,68,0.00,,---,0.00,VWS V14.01,2013-02-21 04:39:00,
2013-02-20 22:44:00,43.5,33.7,30.11,East,93,0.0,0.0,68,0.00,,---,0.00,VWS V14.01,2013-02-21 04:44:00,
2013-02-20 22:50:00,43.6,33.4,30.11,East,93,0.0,0.0,67,0.00,,---,0.00,VWS V14.01,2013-02-21 04:50:00,
2013-02-20 22:55:00,43.9,33.7,30.11,East,93,0.0,1.0,67,0.00,,---,0.00,VWS V14.01,2013-02-21 04:55:00,
2013-02-20 23:00:00,43.9,33.7,30.11,East,93,0.0,0.0,67,0.00,,---,0.00,VWS V14.01,2013-02-21 05:00:00,
2013-02-20 23:02:00,43.8,33.6,30.11,East,94,0.0,0.0,67,0.00,,---,0.00,VWS V14.01,2013-02-21 05:02:00,
2013-02-20 23:04:00,43.8,33.6,30.11,East,94,0.0,1.0,67,0.00,,---,0.00,VWS V14.01,2013-02-21 05:04:00,
2013-02-20 23:06:00,43.9,33.3,30.11,East,93,0.0,0.0,66,0.00,,---,0.00,VWS V14.01,2013-02-21 05:06:00,
2013-02-20 23:12:00,43.9,34.0,30.11,East,93,0.0,0.0,68,0.00,,---,0.00,VWS V14.01,2013-02-21 05:12:00,
2013-02-20 23:17:00,43.7,33.5,30.11,East,93,0.0,0.0,67,0.00,,---,0.00,VWS V14.01,2013-02-21 05:17:00,
2013-02-20 23:22:00,43.4,33.6,30.11,East,93,0.0,0.0,68,0.00,,---,0.00,VWS V14.01,2013-02-21 05:22:00,
2013-02-20 23:28:00,43.0,33.5,30.11,East,93,0.0,0.0,69,0.00,,---,0.00,VWS V14.01,2013-02-21 05:28:00,
2013-02-20 23:33:00,43.0,33.5,30.10,East,93,0.0,0.0,69,0.00,,---,0.00,VWS V14.01,2013-02-21 05:33:00,
2013-02-20 23:38:00,42.8,33.0,30.10,East,93,0.0,0.0,68,0.00,,---,0.00,VWS V14.01,2013-02-21 05:38:00,
2013-02-20 23:44:00,42.4,33.0,30.10,East,93,0.0,0.0,69,0.00,,---,0.00,VWS V14.01,2013-02-21 05:44:00,
2013-02-20 23:49:00,42.2,33.5,30.10,East,93,0.0,0.0,71,0.00,,---,0.00,VWS V14.01,2013-02-21 05:49:00,
2013-02-20 23:54:00,42.3,33.6,30.10,East,93,0.0,0.0,71,0.00,,---,0.00,VWS V14.01,2013-02-21 05:54:00,
2013-02-20 23:59:00,42.4,33.7,30.09,East,93,0.0,0.0,71,0.00,,---,0.00,VWS V14.01,2013-02-21 05:59:00,